| time (UTC) | temp F | wind direction | speed MPH | gust MPH | rain 1hr in | rain 24hr in | rain mn in | humidity % | barometer mb |
| 20260505124553 | 53 | 309 | 0.0 | 1.0 | 0.00 | 0.02 | 0.00 | 50 | 1003.7 |
| 20260505123053 | 54 | 310 | 0.0 | 1.0 | 0.00 | 0.02 | 0.00 | 49 | 1003.6 |
| 20260505121610 | 55 | 257 | 0.0 | 3.0 | 0.00 | 0.02 | 0.00 | 51 | 1003.5 |
| 20260505120033 | 54 | 259 | 0.0 | 7.0 | 0.00 | 0.02 | 0.00 | 50 | 1003.3 |
| 20260505114532 | 54 | 230 | 0.0 | 3.0 | 0.00 | 0.06 | 0.00 | 47 | 1002.9 |
| 20260505113024 | 54 | 191 | 0.0 | 2.0 | 0.00 | 0.06 | 0.00 | 56 | 1002.7 |
| 20260505111526 | 54 | 290 | 0.0 | 2.0 | 0.00 | 0.06 | 0.00 | 57 | 1002.6 |
| 20260505101501 | 50 | 334 | 0.0 | 1.0 | 0.00 | 0.10 | 0.00 | 40 | 1001.9 |
| 20260505100136 | 50 | 311 | 0.0 | 3.0 | 0.00 | 0.10 | 0.00 | 42 | 1001.9 |
| 20260505094553 | 50 | 24 | 0.0 | 6.0 | 0.00 | 0.12 | 0.00 | 40 | 1001.7 |
| 20260505093052 | 50 | 307 | 0.0 | 8.0 | 0.00 | 0.12 | 0.00 | 48 | 1001.5 |
| 20260505091607 | 52 | 71 | 0.0 | 8.0 | 0.00 | 0.12 | 0.00 | 48 | 1001.5 |
| 20260505090054 | 52 | 299 | 1.0 | 13.0 | 0.00 | 0.12 | 0.00 | 45 | 1001.3 |
| 20260505084536 | 52 | 309 | 0.0 | 8.0 | 0.00 | 0.12 | 0.00 | 45 | 1001.2 |
| 20260505083044 | 51 | 264 | 0.0 | 7.0 | 0.00 | 0.12 | 0.00 | 43 | 1001.2 |
| 20260505081530 | 50 | 321 | 1.0 | 13.0 | 0.00 | 0.12 | 0.00 | 36 | 1001.1 |
| 20260505080025 | 50 | 60 | 0.0 | 2.0 | 0.00 | 0.12 | 0.00 | 36 | 1001.0 |
| 20260505074517 | 49 | 272 | 0.0 | 9.0 | 0.00 | 0.12 | 0.00 | 30 | 1000.9 |
| 20260505073013 | 48 | 235 | 0.0 | 9.0 | 0.00 | 0.12 | 0.00 | 21 | 1000.9 |
| 20260505071508 | 48 | 296 | 3.0 | 14.0 | 0.00 | 0.12 | 0.00 | 21 | 1000.8 |
| 20260505070004 | 48 | 299 | 1.0 | 11.0 | 0.00 | 0.12 | 0.00 | 9 | 1000.6 |
| 20260505064609 | 48 | 155 | 3.0 | 12.0 | 0.00 | 0.12 | 0.00 | 8 | 1000.6 |
| 20260505063056 | 48 | 11 | 1.0 | 14.0 | 0.00 | 0.12 | 0.00 | 1 | 1000.6 |
| 20260505061552 | 47 | 307 | 3.0 | 12.0 | 0.00 | 0.12 | 0.00 | 1 | 1000.7 |
| 20260505060048 | 46 | 256 | 2.0 | 8.0 | 0.00 | 0.12 | 0.00 | 1 | 1000.8 |
| 20260505054612 | 45 | 280 | 1.0 | 8.0 | 0.00 | 0.12 | 0.00 | 1 | 1000.8 |
| 20260505053045 | 44 | 40 | 1.0 | 8.0 | 0.00 | 0.12 | 0.00 | 1 | 1001.0 |
| 20260505051540 | 43 | 239 | 1.0 | 12.0 | 0.00 | 0.12 | 0.00 | 1 | 1001.2 |
| 20260505041531 | 41 | 100 | 1.0 | 8.0 | 0.00 | 0.12 | 0.00 | 1 | 1001.4 |
| 20260505040014 | 40 | 309 | 0.0 | 3.0 | 0.00 | 0.12 | 0.00 | 1 | 1001.3 |
| 20260505034507 | 41 | 190 | 1.0 | 8.0 | 0.00 | 0.12 | 0.00 | 1 | 1001.6 |
| 20260505033004 | 41 | 166 | 0.0 | 7.0 | 0.00 | 0.12 | 0.00 | 1 | 1001.5 |
| 20260505031605 | 42 | 120 | 0.0 | 5.0 | 0.00 | 0.12 | 0.00 | 1 | 1001.6 |
| 20260505030103 | 42 | 90 | 0.0 | 3.0 | 0.00 | 0.12 | 0.00 | 1 | 1001.6 |
| 20260505024556 | 42 | 281 | 0.0 | 1.0 | 0.00 | 0.12 | 0.00 | 1 | 1001.7 |
| 20260505023047 | 42 | 297 | 0.0 | 4.0 | 0.00 | 0.12 | 0.00 | 1 | 1001.8 |
| 20260505021551 | 42 | 253 | 0.0 | 3.0 | 0.00 | 0.12 | 0.00 | 1 | 1001.9 |
| 20260505020049 | 42 | 286 | 0.0 | 2.0 | 0.00 | 0.12 | 0.00 | 1 | 1001.9 |
| 20260505014533 | 42 | 246 | 0.0 | 1.0 | 0.00 | 0.12 | 0.00 | 1 | 1001.8 |
| 20260505013029 | 42 | 229 | 0.0 | 0.0 | 0.00 | 0.12 | 0.00 | 1 | 1001.8 |
| 20260505011524 | 42 | 89 | 0.0 | 1.0 | 0.00 | 0.12 | 0.00 | 1 | 1002.0 |
| 20260505010019 | 42 | 100 | 0.0 | 3.0 | 0.00 | 0.12 | 0.00 | 1 | 1002.0 |
| 20260505004517 | 42 | 292 | 0.0 | 3.0 | 0.00 | 0.12 | 0.00 | 1 | 1001.9 |
| 20260505003010 | 42 | 80 | 0.0 | 3.0 | 0.00 | 0.12 | 0.00 | 1 | 1001.8 |
| 20260505001506 | 42 | 307 | 0.0 | 5.0 | 0.00 | 0.12 | 0.00 | 1 | 1001.9 |
| 20260505000002 | 42 | 294 | 0.0 | 6.0 | 0.00 | 0.12 | 0.00 | 1 | 1002.1 |
| 20260504234558 | 42 | 261 | 0.0 | 5.0 | 0.00 | 0.12 | 0.00 | 1 | 1002.1 |
| 20260504233055 | 43 | 172 | 0.0 | 7.0 | 0.00 | 0.12 | 0.00 | 1 | 1002.0 |
| 20260504231550 | 43 | 261 | 0.0 | 2.0 | 0.00 | 0.12 | 0.00 | 1 | 1001.9 |
| 20260504230103 | 43 | 329 | 0.0 | 4.0 | 0.00 | 0.12 | 0.00 | 1 | 1002.0 |
| 20260504224556 | 43 | 307 | 0.0 | 3.0 | 0.00 | 0.12 | 0.00 | 1 | 1002.2 |
| 20260504223035 | 43 | 92 | 0.0 | 3.0 | 0.00 | 0.12 | 0.00 | 1 | 1002.2 |
| 20260504221530 | 43 | 283 | 0.0 | 4.0 | 0.00 | 0.12 | 0.00 | 1 | 1002.3 |
| 20260504220026 | 43 | 257 | 0.0 | 5.0 | 0.00 | 0.12 | 0.00 | 1 | 1002.4 |
| 20260504214535 | 43 | 350 | 0.0 | 3.0 | 0.00 | 0.12 | 0.00 | 1 | 1002.3 |
| 20260504213018 | 44 | 302 | 0.0 | 0.0 | 0.00 | 0.12 | 0.00 | 1 | 1002.1 |
| 20260504211513 | 44 | 310 | 0.0 | 2.0 | 0.00 | 0.12 | 0.00 | 1 | 1002.2 |
| 20260504210012 | 45 | 155 | 0.0 | 0.0 | 0.00 | 0.12 | 0.00 | 1 | 1002.2 |
| 20260504204511 | 45 | 225 | 0.0 | 3.0 | 0.00 | 0.12 | 0.12 | 1 | 1002.2 |
| 20260504203004 | 45 | 269 | 0.0 | 3.0 | 0.00 | 0.12 | 0.12 | 1 | 1002.1 |
| 20260504201610 | 45 | 272 | 0.0 | 2.0 | 0.00 | 0.12 | 0.12 | 1 | 1002.1 |
| 20260504194550 | 46 | 251 | 0.0 | 1.0 | 0.00 | 0.12 | 0.12 | 1 | 1002.0 |
| 20260504193049 | 45 | 288 | 0.0 | 0.0 | 0.00 | 0.12 | 0.12 | 1 | 1001.9 |
| 20260504191547 | 45 | 248 | 0.0 | 0.0 | 0.00 | 0.12 | 0.12 | 1 | 1001.8 |
| 20260504190039 | 45 | 12 | 0.0 | 0.0 | 0.00 | 0.12 | 0.12 | 1 | 1001.8 |
| 20260504184538 | 46 | 305 | 0.0 | 0.0 | 0.00 | 0.12 | 0.12 | 1 | 1001.8 |
| 20260504183034 | 46 | 278 | 0.0 | 0.0 | 0.00 | 0.12 | 0.12 | 1 | 1001.7 |
| 20260504181524 | 47 | 290 | 0.0 | 0.0 | 0.00 | 0.12 | 0.12 | 1 | 1001.6 |
| 20260504180022 | 47 | 265 | 0.0 | 0.0 | 0.00 | 0.12 | 0.12 | 1 | 1001.4 |
| 20260504174515 | 48 | 35 | 0.0 | 0.0 | 0.00 | 0.12 | 0.12 | 1 | 1001.3 |
| 20260504173011 | 49 | 300 | 0.0 | 0.0 | 0.00 | 0.12 | 0.12 | 1 | 1001.2 |
| 20260504171506 | 49 | 268 | 0.0 | 0.0 | 0.00 | 0.12 | 0.12 | 1 | 1001.2 |
| 20260504160106 | 51 | 273 | 0.0 | 0.0 | 0.00 | 0.12 | 0.12 | 1 | 1000.9 |